Weather History for Maple Lake, MN

Change the Weather History Date:

Sunday, October 6, 2013

  Actual Average (KSTC) Record (KSTC)
Temperature  
Mean Temperature 46 °F 50 °F  
Max Temperature 51 °F 62 °F 85 °F (2007)
Min Temperature 40 °F 38 °F 18 °F (1976)
Degree Days  
Heating Degree Days 20 15  
Month to date heating degree days 86  
Since 1 July heating degree days 372  
Cooling Degree Days 0 0  
Month to date cooling degree days 0  
Year to date cooling degree days 463  
Moisture  
Dew Point 47 °F    
Average Humidity 96    
Maximum Humidity 100    
Minimum Humidity 84    
Precipitation  
Precipitation 0.06 in 0.09 in 1.83 in (1982)
Month to date precipitation 0.59  
Year to date precipitation 23.63  
Snow  
Snow 0.00 in 0.00 in T in (1952)
Month to date snowfall 0.0  
Since 1 July snowfall T  
Since 1 September snowfall T  
Snow Depth -    
Sea Level Pressure  
Sea Level Pressure 29.76 in    
Wind  
Wind Speed 4 mph (NNW)    
Max Wind Speed 15 mph    
Max Gust Speed 21 mph    
Visibility 8 miles    
Events Rain    
T = Trace of Precipitation, MM = Missing Value Source: NWS Daily Summary

Daily Weather History Graph

Daily Weather History Graph

Search for Another Location

Airport:

Trip Planner

Search our weather history database for the weather conditions in past years. The results will help you decide how hot, cold, wet, or windy it might be!

Date:

Astronomy

Oct. 06, 2013 Rise Set
Actual Time 7:20 AM CDT 6:46 PM CDT
Civil Twilight 6:51 AM CDT 7:15 PM CDT
Nautical Twilight 6:17 AM CDT 7:49 PM CDT
Astronomical Twilight 5:42 AM CDT 8:24 PM CDT
Moon 9:12 AM CDT (10/6) 7:39 PM CDT (10/6)
Length of Visible Light 12h 24m
Length of Day
11h 25m
Waxing Crescent, 3% of the Moon is Illuminated
Oct 6
Waxing Crescent
Oct 11
First Quarter
Oct 18
Full
Oct 26
Last Quarter
Nov 3
New

Hourly Weather History & Observations

Time (CDT) Temp. Windchill Dew Point Humidity Pressure Visibility Wind Dir Wind Speed Gust Speed Precip Events Conditions
12:16 AM 40.5 °F - 40.3 °F 99% 29.76 in 7.0 mi Calm Calm - N/A   Clear
12:36 AM 40.1 °F - 39.9 °F 99% 29.75 in 4.0 mi Calm Calm - N/A   Scattered Clouds
12:56 AM 40.5 °F - 40.5 °F 100% 29.74 in 5.0 mi Calm Calm - N/A   Mostly Cloudy
1:16 AM 43.0 °F - 43.0 °F 100% 29.74 in 10.0 mi Calm Calm - N/A   Overcast
1:36 AM 44.4 °F - 44.4 °F 100% 29.74 in 10.0 mi Calm Calm - N/A   Overcast
1:56 AM 44.8 °F - 44.8 °F 100% 29.73 in 10.0 mi Calm Calm - N/A   Overcast
2:16 AM 45.0 °F - 45.0 °F 100% 29.73 in 10.0 mi Calm Calm - N/A   Overcast
2:36 AM 45.9 °F - 45.9 °F 100% 29.73 in 10.0 mi Calm Calm - N/A   Light Drizzle
2:56 AM 45.9 °F - 45.9 °F 100% 29.72 in 10.0 mi Calm Calm - N/A   Overcast
3:16 AM 46.4 °F - 46.2 °F 99% 29.71 in 10.0 mi Calm Calm - N/A   Overcast
3:36 AM 46.4 °F - 46.2 °F 99% 29.71 in 10.0 mi Calm Calm - N/A   Overcast
3:56 AM 46.8 °F - 46.6 °F 99% 29.71 in 10.0 mi Calm Calm - N/A   Overcast
4:16 AM 47.3 °F - 46.8 °F 98% 29.71 in 10.0 mi Calm Calm - N/A   Overcast
4:36 AM 47.8 °F - 47.5 °F 99% 29.70 in 10.0 mi Calm Calm - N/A   Overcast
4:56 AM 48.0 °F - 47.5 °F 98% 29.70 in 10.0 mi Calm Calm - N/A   Overcast
5:16 AM 48.2 °F - 47.8 °F 99% 29.70 in 10.0 mi Calm Calm - N/A   Overcast
5:36 AM 48.4 °F - 48.2 °F 99% 29.70 in 10.0 mi Calm Calm - N/A   Overcast
5:56 AM 48.4 °F - 47.7 °F 97% 29.71 in 10.0 mi WNW 4.6 mph - N/A   Overcast
6:16 AM 48.4 °F - 47.8 °F 98% 29.71 in 2.5 mi WNW 5.8 mph - N/A   Drizzle
6:36 AM 48.4 °F - 48.2 °F 99% 29.72 in 3.0 mi Calm Calm - 0.02 in   Drizzle
6:56 AM 48.9 °F - 48.6 °F 99% 29.71 in 5.0 mi NNW 4.6 mph - 0.03 in   Overcast
7:16 AM 49.1 °F - 48.7 °F 99% 29.70 in 10.0 mi North 5.8 mph - N/A   Overcast
7:36 AM 49.1 °F - 48.7 °F 99% 29.70 in 7.0 mi NNE 4.6 mph - N/A   Overcast
7:56 AM 49.1 °F - 49.1 °F 100% 29.71 in 4.0 mi North 4.6 mph - N/A   Overcast
8:16 AM 49.5 °F - 49.1 °F 99% 29.71 in 10.0 mi NNW 8.1 mph - N/A   Overcast
8:36 AM 49.6 °F - 49.1 °F 98% 29.72 in 10.0 mi NNW 8.1 mph - N/A   Overcast
8:56 AM 49.1 °F - 48.4 °F 97% 29.73 in 10.0 mi NNW 12.7 mph 17.3 mph N/A   Overcast
9:16 AM 49.3 °F - 48.2 °F 96% 29.73 in 10.0 mi NNW 9.2 mph - N/A   Overcast
9:36 AM 49.3 °F - 48.2 °F 96% 29.73 in 3.0 mi NNW 11.5 mph 16.1 mph N/A   Overcast
9:56 AM 49.5 °F - 48.7 °F 97% 29.73 in 2.0 mi NNW 12.7 mph 18.4 mph N/A   Overcast
10:16 AM 49.8 °F - 49.1 °F 97% 29.73 in 10.0 mi NNW 10.4 mph - N/A   Overcast
10:36 AM 50.4 °F - 49.1 °F 95% 29.73 in 10.0 mi North 6.9 mph - N/A   Overcast
10:56 AM 51.1 °F - 49.5 °F 94% 29.73 in 10.0 mi North 9.2 mph - N/A   Overcast
11:16 AM 51.6 °F - 49.1 °F 91% 29.73 in 10.0 mi North 9.2 mph - N/A   Overcast
11:36 AM 51.8 °F - 49.1 °F 90% 29.74 in 10.0 mi North 9.2 mph - N/A   Overcast
11:56 AM 51.4 °F - 49.1 °F 92% 29.74 in 10.0 mi North 8.1 mph - N/A   Overcast
12:16 PM 51.1 °F - 50.0 °F 96% 29.74 in 4.0 mi North 5.8 mph - N/A   Overcast
12:35 PM 51.3 °F - 50.0 °F 95% 29.75 in 7.0 mi North 6.9 mph - N/A   Overcast
12:56 PM 51.3 °F - 50.0 °F 95% 29.75 in 2.5 mi North 12.7 mph - N/A   Overcast
1:16 PM 51.4 °F - 50.4 °F 96% 29.74 in 4.0 mi North 9.2 mph - N/A   Overcast
1:36 PM 51.4 °F - 50.0 °F 95% 29.75 in 4.0 mi North 8.1 mph - N/A   Overcast
1:56 PM 50.7 °F - 49.8 °F 97% 29.75 in 1.8 mi NW 9.2 mph 19.6 mph N/A Rain Light Rain
2:16 PM 50.4 °F - 49.5 °F 97% 29.75 in 1.2 mi NNW 15.0 mph 18.4 mph N/A Rain Light Rain
2:36 PM 50.0 °F - 49.1 °F 97% 29.75 in 2.5 mi North 11.5 mph 19.6 mph N/A   Overcast
2:56 PM 49.3 °F - 48.2 °F 96% 29.76 in 4.0 mi North 13.8 mph 20.7 mph N/A   Overcast
3:16 PM 50.0 °F - 48.0 °F 93% 29.75 in 10.0 mi NNW 11.5 mph - N/A   Overcast
3:36 PM 50.2 °F - 47.8 °F 92% 29.76 in 10.0 mi NNW 6.9 mph - N/A   Overcast
3:56 PM 50.0 °F - 47.3 °F 90% 29.77 in 10.0 mi NNW 12.7 mph 19.6 mph N/A   Overcast
4:16 PM 49.1 °F - 46.9 °F 92% 29.78 in 10.0 mi NNW 10.4 mph - N/A   Overcast
4:36 PM 48.7 °F - 47.3 °F 95% 29.78 in 3.0 mi NNW 11.5 mph 16.1 mph N/A Rain Rain
4:56 PM 48.7 °F - 47.8 °F 97% 29.78 in 4.0 mi NNW 6.9 mph - 0.01 in   Drizzle
5:16 PM 48.7 °F - 48.0 °F 97% 29.80 in 3.0 mi NNW 9.2 mph 16.1 mph 0.01 in Rain Light Rain
5:36 PM 49.1 °F - 48.2 °F 97% 29.80 in 7.0 mi NW 6.9 mph - 0.02 in   Light Drizzle
5:56 PM 50.0 °F - 48.6 °F 95% 29.80 in 10.0 mi NNW 6.9 mph - 0.02 in   Mostly Cloudy
6:16 PM 50.0 °F - 48.4 °F 94% 29.82 in 10.0 mi NNW 5.8 mph - N/A   Mostly Cloudy
6:36 PM 49.5 °F - 48.2 °F 95% 29.82 in 10.0 mi NW 5.8 mph - N/A   Mostly Cloudy
6:56 PM 48.2 °F - 47.1 °F 96% 29.83 in 10.0 mi Calm Calm - N/A   Scattered Clouds
7:16 PM 47.3 °F - 46.6 °F 97% 29.83 in 10.0 mi Calm Calm - N/A   Clear
7:36 PM 45.1 °F - 44.6 °F 98% 29.83 in 4.0 mi Calm Calm - N/A   Clear
7:56 PM 44.4 °F - 44.1 °F 99% 29.84 in 3.0 mi Calm Calm - N/A   Clear
8:16 PM 45.1 °F - 45.1 °F 100% 29.84 in 4.0 mi Calm Calm - N/A   Clear
8:35 PM 45.3 °F 44.0 °F 45.3 °F 100% 29.84 in 10.0 mi West 3.5 mph - N/A   Clear
8:56 PM 45.9 °F 44.6 °F 45.9 °F 100% 29.84 in 10.0 mi WNW 3.5 mph - N/A   Clear
9:16 PM 45.5 °F 44.2 °F 45.0 °F 98% 29.84 in 10.0 mi WNW 3.5 mph - N/A   Clear
9:36 PM 45.3 °F 44.0 °F 44.4 °F 97% 29.85 in 10.0 mi West 3.5 mph - N/A   Clear
9:56 PM 46.4 °F 43.5 °F 45.1 °F 95% 29.85 in 10.0 mi WNW 5.8 mph - N/A   Clear
10:16 PM 47.1 °F - 45.5 °F 94% 29.86 in 10.0 mi WNW 6.9 mph - N/A   Clear
10:36 PM 47.8 °F - 44.8 °F 89% 29.86 in 10.0 mi WNW 6.9 mph - N/A   Clear
10:56 PM 47.8 °F - 44.6 °F 89% 29.86 in 10.0 mi WNW 5.8 mph - N/A   Clear
11:16 PM 48.2 °F - 43.9 °F 85% 29.86 in 10.0 mi WNW 6.9 mph - N/A   Clear
11:36 PM 47.8 °F - 43.5 °F 85% 29.86 in 10.0 mi West 5.8 mph - N/A   Clear
11:56 PM 47.8 °F - 43.2 °F 84% 29.86 in 10.0 mi West 5.8 mph - N/A   Clear